Starlink 11478

operational
NORAD ID: 62557 Int'l Des: 2025-006 Owner: SPXS Country: US Constellation: starlink
LEOCIRCULAR

About Starlink 11478

Description loading...

Live Position

Loading 3D Globe...

Upcoming Passes

Altitude History

Altitude vs Time

uPlot chart will show altitude changes over time

Two-Line Element Set

1 62557U 25006D 25301.06400326 .00274854 00000-0 20700-2 0 9991
2 62557 42.9998 219.3359 0000822 230.3949 129.6846 15.70901887 45744
Epoch: Oct 28, 2025 • Age: 31 hours

Current Status

Altitude 356.1 km
Velocity 7.70 km/s
Sub-Earth Point 35.67°N, 175.22°E
Launch Date Jan 10, 2025
Age 0.7 years
Type internet

Technical Details

Classification Payload
Mass 960.00 kg
Dry Mass 910.00 kg
Total Mass 960.00 kg
Length 0.30 m
Diameter 4.10 m
Span 29.00 m
Shape Box + pan
Manufacturer SPXS
Bus Type Starlink V2MD
Phase Status In Orbit
Owner/State SPXS/US

Large Constellations

Loading constellations...